TimeEST,TemperatureF,Dew PointF,Humidity,Sea Level PressureIn,VisibilityMPH,Wind Direction,Wind SpeedMPH,Gust SpeedMPH,PrecipitationIn,Events,Conditions,WindDirDegrees,DateUTC
12:53 AM,44.1,39.0,82,29.44,10.0,WNW,10.4,18.4,N/A,,Overcast,290,2012-12-19 05:53:00
1:00 AM,44.6,39.2,81,29.45,10.0,West,8.1,-,N/A,,Overcast,280,2012-12-19 06:00:00
1:53 AM,43.0,37.0,80,29.45,10.0,West,11.5,18.4,N/A,,Mostly Cloudy,280,2012-12-19 06:53:00
2:53 AM,42.1,35.1,76,29.46,10.0,WNW,9.2,-,N/A,,Scattered Clouds,290,2012-12-19 07:53:00
3:53 AM,42.1,34.0,73,29.47,10.0,WNW,10.4,-,N/A,,Overcast,290,2012-12-19 08:53:00
4:53 AM,41.0,33.1,73,29.48,10.0,West,12.7,-,N/A,,Overcast,280,2012-12-19 09:53:00
5:53 AM,41.0,32.0,70,29.50,10.0,West,13.8,23.0,N/A,,Overcast,280,2012-12-19 10:53:00
6:53 AM,41.0,30.9,67,29.52,10.0,WNW,13.8,23.0,N/A,,Overcast,300,2012-12-19 11:53:00
7:53 AM,41.0,30.9,67,29.54,10.0,WNW,16.1,20.7,N/A,,Mostly Cloudy,300,2012-12-19 12:53:00
8:53 AM,42.1,30.9,65,29.56,10.0,NW,15.0,25.3,N/A,,Overcast,320,2012-12-19 13:53:00
9:53 AM,43.0,30.9,62,29.58,10.0,NW,11.5,26.5,N/A,,Mostly Cloudy,310,2012-12-19 14:53:00
10:53 AM,44.1,30.9,60,29.59,10.0,NW,13.8,-,N/A,,Overcast,310,2012-12-19 15:53:00
11:53 AM,46.0,30.9,56,29.61,10.0,NW,20.7,26.5,N/A,,Overcast,310,2012-12-19 16:53:00
12:53 PM,48.0,30.9,52,29.64,10.0,NW,16.1,28.8,N/A,,Overcast,310,2012-12-19 17:53:00
1:53 PM,46.0,30.0,54,29.67,10.0,NW,10.4,26.5,N/A,,Overcast,320,2012-12-19 18:53:00
2:53 PM,45.0,30.0,56,29.71,10.0,North,12.7,19.6,N/A,,Overcast,350,2012-12-19 19:53:00
3:53 PM,44.1,28.9,55,29.75,10.0,NNW,11.5,27.6,N/A,,Overcast,340,2012-12-19 20:53:00
4:53 PM,43.0,28.9,58,29.80,10.0,NNW,15.0,26.5,N/A,,Overcast,340,2012-12-19 21:53:00
5:53 PM,42.1,28.9,60,29.84,10.0,NNW,10.4,17.3,N/A,,Scattered Clouds,330,2012-12-19 22:53:00
6:53 PM,41.0,28.9,62,29.89,10.0,NNW,11.5,18.4,N/A,,Clear,330,2012-12-19 23:53:00
7:53 PM,39.9,28.0,63,29.93,10.0,NNW,10.4,17.3,N/A,,Mostly Cloudy,330,2012-12-20 00:53:00
8:53 PM,39.9,28.0,63,29.96,10.0,Variable,6.9,17.3,N/A,,Clear,0,2012-12-20 01:53:00
9:53 PM,37.9,28.0,68,29.98,10.0,NNW,6.9,-,N/A,,Partly Cloudy,340,2012-12-20 02:53:00
10:53 PM,37.0,28.0,70,30.02,10.0,NW,4.6,-,N/A,,Mostly Cloudy,310,2012-12-20 03:53:00
11:53 PM,37.9,28.0,68,30.03,10.0,NW,4.6,-,N/A,,Overcast,320,2012-12-20 04:53:00